Regional Weather Roundup
Issued by NWS

Home | Current Version | Previous Version | Graphics & Text | Print | Product List | Glossary On
Versions: 1 2 3 4 5 6 7 8 9 10 11 12 13 14 15 16 17 18 19 20 21 22 23 24 25 26 27 28 29 30 31 32 33 34 35 36 37 38 39 40 41 42 43 44 45 46 47 48 49 50
000
ASUS43 KLOT 260204
RWRIL

ILLINOIS REGIONAL WEATHER ROUNDUP
NATIONAL WEATHER SERVICE CHICAGO/ROMEOVILLE IL
900 PM CDT FRI MAY 25 2018

NOTE: "FAIR" INDICATES FEW OR NO CLOUDS BELOW 12,000 FEET WITH NO
SIGNIFICANT WEATHER AND/OR OBSTRUCTIONS TO VISIBILITY.

* THESE STATIONS ARE NOT UNDER NWS QUALITY CONTROL. THEY ALSO MAY NOT
  REPORT WEATHER SUCH AS PRECIPITATION OR FOG.

ILZ001-002-007-009-015-016-024-260300-
NORTHWEST ILLINOIS

CITY           SKY/WX    TMP DP  RH WIND       PRES   REMARKS
MOLINE         FAIR      75  68  78 S6        29.79R
STERLING*        N/A    N/A N/A N/A MISG        N/A
SAVANNA*       FAIR      73  67  82 SW5       29.79R
$$

ILZ003-004-008-010-011-017-018-260300-
NORTH CENTRAL ILLINOIS

CITY           SKY/WX    TMP DP  RH WIND       PRES   REMARKS
ROCKFORD       MOCLDY    71  65  81 S3        29.79S
FREEPORT*      FAIR      69  64  84 SW6       29.81R
ROCHELLE*      FAIR      73  64  74 SW7       29.80R
DE KALB*       CLOUDY    74  64  70 W6        29.81R
PERU*          FAIR      76  70  82 SW8       29.82R
$$

ILZ005-006-012>014-019>023-260300-
NORTHEAST ILLINOIS

CITY           SKY/WX    TMP DP  RH WIND       PRES   REMARKS
CHICAGO-OHARE  MOCLDY    79  63  57 W8        29.78R HX  80
CHICAGO-MIDWAY CLOUDY    80  64  58 W6        29.77S HX  82
AURORA         FAIR      74  66  76 CALM      29.79R
LANSING*       MOCLDY    77  65  65 W3        29.78S
JOLIET*        MOCLDY    78  67  69 CALM      29.79R
WAUKEGAN       CLOUDY    74  64  71 S5        29.77S
DUPAGE AIRPORT MOCLDY    75  66  73 CALM      29.78S
KANKAKEE*      FAIR      75  64  68 CALM      29.80R
WHEELING       CLOUDY    80  64  58 NW6       29.79R HX  82
MORRIS*        CLOUDY    75  67  76 W5        29.78R
ROMEOVILLE*    MOCLDY    74  65  72 NW3       29.79R
NORTHERLY ISL    N/A     79  59  50 W8          N/A  HX  80
$$

LMZ740>746-260300-
SOUTHERN LAKE MICHIGAN

STATION/POSITION SKY/WX   TEMP    WIND        PRES    VSBY  WAVE
                          AIR SEA DIR/SP/G                  HT/PER
                          (F)     (DEG/KT/KT) (MB)    (MI)  (FT/S)
SOUTHERN BUOY              58 39  140/  8/  8 1008.1S         0
WILMETTE HARBOR            69 56  210/  6/  6   N/A           1/ 2
HARRISON CRIB              79     220/  6/  7   N/A
BURNHAM HARBOR             79     290/  7/  9   N/A
CALUMET HARBOR             80     260/  3/  4 1007.9R
BURNS HARBOR               79     240/ 10/ 11 1008.5S
MICHIGAN CITY              81     140/  4/  5   N/A
MICHIGAN CITY 6N           74 64  150/  4/  4   N/A           0
ST. JOSEPH                 71 63  140/  6/  6 1007.7R         0
$$

ILZ025>027-034>036-040-047-049-050-058-095>099-260300-
WEST-CENTRAL ILLINOIS

CITY           SKY/WX    TMP DP  RH WIND       PRES   REMARKS
QUINCY         CLEAR     75  64  68 SE5       29.81R
GALESBURG*     FAIR      71  66  84 E5        29.82R
MACOMB*        CLEAR     69  67  95 S3        29.83R
JACKSONVILLE*  PTCLDY    71  68  91 CALM      29.81S
PITTSFIELD*    CLOUDY    71  70  96 E3        29.83R
$$

ILZ028>032-037-038-041>044-048-051>054-059>061-260300-
CENTRAL ILLINOIS

CITY           SKY/WX    TMP DP  RH WIND       PRES   REMARKS
PONTIAC        DRIZZLE   72  71  98 SW5       29.83R
BLOOMINGTON    MOCLDY    69  68  96 S10       29.83S
DECATUR        MOCLDY    70  68  93 NE3       29.82F
PEORIA         FAIR      69  67  93 CALM      29.81R FOG
LACON*         FAIR      70  68  92 S3        29.80R
LINCOLN*       LGT RAIN  71  71  99 SE3       29.80R
SPRINGFIELD    FAIR      71  70  96 SE6       29.81R
TAYLORVILLE    FAIR      72  68  87 E5        29.82F
$$

ILZ033-039-045-046-055>057-062-063-260300-
EAST-CENTRAL ILLINOIS

CITY           SKY/WX    TMP DP  RH WIND       PRES   REMARKS
CHAMPAIGN      LGT RAIN  69  66  90 NW10      29.83S
DANVILLE*      MOCLDY    80  59  49 SW24      29.80R HX  80
RANTOUL*       TSTM      71  70  98 SW3       29.87R
MATTOON        FAIR      73  70  90 SW5       29.83R
PARIS*         FAIR      79  66  64 S13G21    29.84R HX  81
$$

ILZ079-100>102-260300-
SOUTHWEST ILLINOIS

CITY           SKY/WX    TMP DP  RH WIND       PRES   REMARKS
ALTON          CLOUDY    77  68  73 S12       29.82S
BELLEVILLE     PTCLDY    74  67  77 SW7       29.81S
CAHOKIA*       MOCLDY    76  67  73 VRB3      29.82S
SPARTA*        PTCLDY    72  72 100 SW7       29.86R
$$

ILZ064>066-069>071-074>076-080>082-084>086-088>090-092>094-260300-
SOUTH-CENTRAL ILLINOIS

CITY           SKY/WX    TMP DP  RH WIND       PRES   REMARKS
CARBONDALE     FAIR      68  67  96 SW6       29.85S
CAIRO*         FAIR      72  68  89 S8        29.87S
EFFINGHAM*     FAIR      70  68  93 CALM      29.86R
MARION         FAIR      67  66  98 S5        29.87R
MT. VERNON     FAIR      70  69  97 S6        29.85S
CENTRALIA*     PTCLDY    71  69  94 S6        29.83R
SALEM*         FAIR      73  67  82 S7        29.83S
METROPOLIS*    FAIR      69  68  97 CALM      29.88S
$$

ILZ067-068-072-073-078-083-087-091-260300-
SOUTHEAST ILLINOIS

CITY           SKY/WX    TMP DP  RH WIND       PRES   REMARKS
LAWRENCEVILLE  FAIR      77  64  64 S8        29.85S
FLORA*         FAIR      70  68  93 S5        29.85R
FAIRFIELD*     FAIR      71  70  99 S5        29.84S
HARRISBURG*    FAIR      69  69  99 CALM      29.87S
ROBINSON*      FAIR      74  63  67 S8        29.85R
CARMI*         FAIR      72  67  84 SW3       29.86R
$$

ABBREVIATIONS USED IN REMARKS
   TC - TEMPERATURE IN CELSIUS
  WCI - WIND CHILL INDEX
   HX - HEAT INDEX
  VSB - VISIBILITY
$$





USA.gov is the U.S. government's official web portal to all federal, state and local government web resources and services.